Location: Tyumen
(57.1527°N, 65.5323°E)
Time: 01:15:17
(UTC+05:00)

ISS - Visible Passes

Search period start: 10 February 2026 00:00
Search period end: 20 February 2026 00:00
Orbit: 414 x 429 km, 51.6° (Epoch: 9 February)

Date Brightness Start Highest point End Pass type
(mag) Time Alt. Az. Time Alt. Az. Time Alt. Az.
14 Feb -0.9 07:19:25 10° SSW 07:21:34 16° SSE 07:23:42 10° ESE visible
15 Feb -0.9 06:33:12 10° S 06:34:43 13° SSE 06:36:14 10° ESE visible
16 Feb -1.6 07:21:07 10° SW 07:23:52 24° SSE 07:26:37 10° ESE visible
17 Feb -1.5 06:34:23 10° SSW 06:36:55 20° SSE 06:39:28 10° ESE visible
18 Feb -1.3 05:48:31 13° S 05:49:59 16° SSE 05:52:11 10° ESE visible
19 Feb -1.0 05:03:20 13° SE 05:03:20 13° SE 05:04:41 10° ESE visible
19 Feb -2.1 06:36:19 10° SW 06:39:10 27° SSE 06:42:04 10° ESE visible
